Regional Weather Roundup
Issued by NWS

Home | Current Version | Previous Version | Text Only | Print | Product List | Glossary On
Versions: 1 2 3 4 5 6 7 8 9 10 11 12 13 14 15 16 17 18 19 20 21 22 23 24 25 26 27 28 29 30 31 32 33 34 35 36 37 38 39 40 41 42 43 44 45 46 47 48 49 50
000
ASUS44 KLUB 292310
RWRTX
WEST TEXAS WEATHER ROUNDUP
NATIONAL WEATHER SERVICE LUBBOCK TX
600 PM CDT SUN MAR 29 2015

NOTE: "FAIR" INDICATES FEW OR NO CLOUDS BELOW 12,000 FEET WITH NO
SIGNIFICANT WEATHER AND/OR OBSTRUCTIONS TO VISIBILITY.

TXZ004-006>008-010-012-014-016-OKZ002-300000-
TEXAS PANHANDLE/OKLAHOMA PANHANDLE

CITY           SKY/WX    TMP DP  RH WIND       PRES   REMARKS
AMARILLO       SUNNY     72  20  14 N20G29    30.17S
BORGER         SUNNY     73  23  15 NE14G21   30.16S
CANADIAN       SUNNY     75  24  15 NE13G24   30.12S
DALHART        CLOUDY    72  18  13 NE10G17   30.20S HAZE
DUMAS          SUNNY     71  22  15 NE12G22   30.18S
GUYMON         SUNNY     73  20  13 N20G28    30.14S
HEREFORD       SUNNY     74  25  16 NE18G24   30.18S
PAMPA          SUNNY     71  24  17 NE20G26   30.17R
PERRYTON       SUNNY     72  24  16 N14G23    30.14S
$$

TXZ026-029-035-045-048-300000-
SOUTHERN PANHANDLE/SOUTH PLAINS/ROLLING PLAINS

CITY           SKY/WX    TMP DP  RH WIND       PRES   REMARKS
CHILDRESS      SUNNY     82  22  11 NE17G26   30.07S
SEMINOLE       SUNNY     83  30  14 NE16G23   30.09S
LUBBOCK        MOSUNNY   80  28  15 NE22G28   30.11R
PLAINVIEW      SUNNY     75  25  15 NE24      30.13R
SNYDER         SUNNY     80  41  24 NE23      30.06R
$$

TXZ052-054-060>062-072-078-127-140-154-169-300000-
PERMIAN BASIN/CONCHO VALLEY/BIG COUNTRY/EDWARDS PLATEAU

CITY           SKY/WX    TMP DP  RH WIND       PRES   REMARKS
ABILENE        SUNNY     84  45  25 N24G30    29.98R
BIG SPRING     SUNNY     87  33  15 N22G30    30.03R
BRADY          SUNNY     90  48  24 S13       29.95R HAZE
BROWNWOOD      SUNNY     86  54  32 S14       29.93S
JUNCTION       SUNNY     89  42  19 S13G18    29.97S
MIDLAND        SUNNY     90  35  14 NE12      30.02S
ODESSA         SUNNY     88  30  12 NE12      30.04R
SAN ANGELO     SUNNY     91  40  16 SW10      29.93F
SONORA         SUNNY     86  43  22 SW10      30.03F
SWEETWATER     SUNNY     83  38  20 N18G30    30.06R
WINK           SUNNY     90  24   9 NE10      30.00S
$$

TXZ055-058-074-075-080-082-300000-
FAR WEST/SOUTHWEST MOUNTAINS/TRANS PECOS

CITY           SKY/WX    TMP DP  RH WIND       PRES   REMARKS
ALPINE         SUNNY     83  20   9 NE12G18   30.18S
DRYDEN           N/A     90  46  21 E13       29.97S
EL PASO        CLOUDY    87   8   5 NW9       30.08F
FORT STOCKTON  SUNNY     89  20   8 NW10      30.03F
GUADALUPE PASS PTSUNNY   79  14   8 SW18      30.18F
MARFA          SUNNY     82  21  10 W14G22    30.16S
PECOS          SUNNY     90  28  11 SW6       30.00S
PRESIDIO       FAIR      92  15   6 W8        30.01F
$$

TXZ014-016-019-021>030-083-300000
TEXAS TECH WEST TEXAS MESONET/TEXAS PANHANDLE/NORTHERN SOUTH PLAINS

CITY           SKY/WX    TMP DP  RH WIND       PRES   REMARKS
ABERNATHY 5ENE   N/A     76  24  14 NE20      30.13R
AMARILLO 9NNE    N/A     72  23  16 N16       30.16S
AMARILLO 7SSE    N/A     71  24  16 NE15      30.18S
AMHERST 1NE      N/A     75  22  14 NE16      30.15S
BOOTLEG 11WNW    N/A     70  24  17 NE14      30.23S
CANADIAN 6E      N/A     73  27  17 N18       30.11S
CAPROCK CYN SP   N/A     76  22  13 NE16      30.12R
CHILDRESS 2NNE   N/A     81  23  11 N20       30.07R
CLARENDON 2WSW   N/A     76  20  12 N17       30.13R
CLAUDE 12SW      N/A     72  24  16 NE18      30.16S
DIMMITT 2NE      N/A     72  24  17 NE20      30.17R
FLOYDADA 2NNE    N/A     76  19  11 NE21      30.12R
FRIONA 2NE       N/A     71  24  17 NE16      30.20R
GOODLETT 3W      N/A     81  28  14 NE20      30.04S
HART 3N          N/A     73  20  14 NE20      30.16R
HEREFORD 2NW     N/A     71  21  15 N16       30.18S
MCLEAN 1E        N/A     73  22  14 N18G28    30.11R
MEMPHIS 1NE      N/A     80  19  10 N17       30.09R
MULESHOE 2SSW    N/A     75  23  14 NE16      30.17R
OLTON 6S         N/A     75  22  14 NE22      30.14S
PALO DURO SP     N/A     72  23  16 NE8       30.17F
PAMPA 2E         N/A     71  24  17 N17       30.16R
PLAINVIEW 1S     N/A     75  24  14 N18G28    30.13R
SILVERTON 7ESE   N/A     75  23  14 N18       30.13S
TULIA 2ENE       N/A     73  25  16 NE18      30.15S
TURKEY 2WSW      N/A     78  21  12 N24       30.10R
UMBARGER 3NNE    N/A     71  24  17 NE13      30.19R
$$

TXZ033>036-039>041-045>048-300000
TEXAS TECH WEST TEXAS MESONET/SOUTH PLAINS

CITY           SKY/WX    TMP DP  RH WIND       PRES   REMARKS
AIKEN 3WSW       N/A     76  26  15 NE21      30.15R
ANDREWS 2NE      N/A     86  29  13 NE14      30.06S
ANTON 6SSW       N/A     78  27  15 NE20      30.13R
BROWNFIELD 2S    N/A     79  26  14 NE17      30.11R
DENVR CTY 7WNW   N/A     80  22  11 NE16      30.11S
GAIL 2ESE        N/A     81  36  19 NE18      30.06R
LAMESA 2SE       N/A     82  31  15 NE17      30.08R
LEVELLAND 4S     N/A     78  26  15 NE20      30.13R
LUBBOCK 3WNW     N/A     79  27  15 NE14      30.12R
MORTON 1ENE      N/A     76  27  16 NE20      30.15S
ODONNELL 1N      N/A     82  24  11 NE20      30.09R
PLAINS 3N        N/A     79  26  14 NE16      30.13S
REESE CENTER     N/A     77  26  15 NE21      30.12R
SEAGRAVES 1SW    N/A     82  24  12 NE12      30.10S
SEMINOLE 2NNE    N/A     82  25  12 NE21      30.09R
SLATON 2NE       N/A     79  26  14 NE17      30.11R
SNYDER 3E        N/A     80  38  22 N24       30.05R
SUNDOWN 8SW      N/A     79  28  15 NE16      30.13S
TAHOKA 3NNE      N/A     79  27  15 NE17      30.10R
WOLFFORTH 6SSW   N/A     79  31  17 NE18      30.12R
$$

TXZ031-032-036>038-042>044-300000-
TEXAS TECH WEST TEXAS MESONET/ROLLING PLAINS

CITY           SKY/WX    TMP DP  RH WIND       PRES   REMARKS
ASPERMONT 3NE    N/A     80  37  21 N22       30.04R
FLUVANNA 3WNW    N/A     79  33  18 N22       30.07R
GRAHAM 5SSW      N/A     78  28  15 NE23G32   30.08R
GUTHRIE 10WSW    N/A     82  32  16 NE21G31   30.05R
HASKELL 1NW      N/A     78  43  28 N26       30.02R
JAYTON 1SSE      N/A     80  36  20 NE20      30.05R
KNOX CITY 3NW    N/A     79  35  20 N25       30.04R
LK A HENRY 1NW   N/A     81  36  19 NE16      30.06R
NORTHFIELD 1S    N/A     82  22  11 N18       30.07S
ODELL 4ENE       N/A     78  38  23 NE17      30.06S
PADUCAH 10SW     N/A     80  28  14 NE23      30.06R
POST 1NE         N/A     81  30  16 NE21G31   30.08R
RRING SPRGS 3N   N/A     79  27  15 N20       30.09R
SEYMOUR 3NW      N/A     79  43  28 N28       30.02R
SPUR 1W          N/A     80  27  14 NE20      30.06R
WEINERT 2NNE     N/A     78  45  30 N18       30.03R
WHITE RVR 6NE    N/A     80  29  15 NE21      30.08R
$$

TXZ052-054-060>062-072-078-127-140-154-169-300000-
TEXAS TECH WEST TEXAS MESONET/PERMIAN BASIN/
CONCHO VALLEY/BIG COUNTRY/EDWARDS PLATEAU

CITY           SKY/WX    TMP DP  RH WIND       PRES   REMARKS
COYANOSA 2N      N/A     92  26   9 SW9       29.99S
JUNCTION 1SSW    N/A     88  51  27 S13       29.98S
MERTZON 3NNE     N/A     92  39  16 N2        29.96F
SAN ANGELO 7NW   N/A     90  36  14 W8        29.94S
STRLNG CT 4WSW   N/A     90  35  14 N14       29.98S
ST LAWRNCE 5SW   N/A     90  21   8 NW12      30.00S
SWEETWATR 11SW   N/A     83  42  23 N20       30.04R
WALL 1E          N/A     91  39  16 SW8       29.95S
$$

TXZ055-058-074-075-080-082-300000-
TEXAS TECH WEST TEXAS MESONET/FAR WEST/SOUTHWEST MOUNTAINS/TRANS PECOS

CITY           SKY/WX    TMP DP  RH WIND       PRES   REMARKS
PRSMN GAP BBNP   N/A     91  23   8 SE5       30.00F
$$


USA.gov is the U.S. government's official web portal to all federal, state and local government web resources and services.